STARLINK-11420 [DTC] (62591 NORAD) Tracking and Keplerian Element Data

This shows tracking and keplerian element data for the satellite.

Feedback or suggestion? Click here.




ElementValue
Catalog62591
NameSTARLINK-11420 [DTC]
Epoch Orbit455
Epoch Day34.98146297
Epoch Year2025
RAAN11.6212
Inclination42.9991
Eccentricity0.0001577
Argument of Perigee254.8624
Mean Anonmoly105.2072
Mean Motion15.77854486
Decay Rate1.091E-05
L11 62591U 25008E 25034.98146297 .00001091 00000+0 91372-5 0 9995
L22 62591 42.9991 11.6212 0001577 254.8624 105.2072 15.77854486 4559



Live tracking and technical data element details for STARLINK-11420 [DTC] (NORAD 62591). STARLINK-11420 [DTC] can be tracked NOW for your location showing map with azimuth and elevation plus other details from your city location.







IsCatalogInMostPopularTable: catalog: 62591, numindb: 17
Update: records affected: 1



GetName: 62591 STARLINK-11420 [DTC]

Hit Count: updated at: Sun, 18 May 2025 23:24:14 GMT